Hourly Weather Inverclyde

Today, 11 August, Tuesday

Time Temperature Precipitation Wind Pressure Humidity
00:00 +15°C° 0 mm 1 mps 763 mmHg 95%
01:00 +14°C° 0 mm 1 mps 763 mmHg 95%
02:00 +13°C° 0 mm 0 mps 763 mmHg 96%
03:00 +13°C° 0 mm 0 mps 763 mmHg 96%
04:00 +13°C° 0.1 mm 0 mps 763 mmHg 95%
05:00 +14°C° 0.1 mm 0 mps 762 mmHg 94%
06:00 +14°C° 0 mm 0 mps 762 mmHg 94%
07:00 +16°C° 0.3 mm 1 mps 762 mmHg 91%
08:00 +18°C° 0.3 mm 1 mps 762 mmHg 89%
09:00 +19°C° 0.3 mm 1 mps 762 mmHg 87%
10:00 +20°C° 0.3 mm 1 mps 762 mmHg 85%
11:00 +20°C° 0.3 mm 1 mps 762 mmHg 84%
12:00 +21°C° 0 mm 2 mps 761 mmHg 78%
13:00 +23°C° 0.2 mm 2 mps 761 mmHg 76%
14:00 +23°C° 0.2 mm 2 mps 761 mmHg 74%
15:00 +24°C° 0.2 mm 2 mps 760 mmHg 72%
16:00 +23°C° 0.6 mm 2 mps 760 mmHg 77%
17:00 +23°C° 0.6 mm 1 mps 760 mmHg 81%
18:00 +22°C° 0.6 mm 1 mps 760 mmHg 86%
19:00 +21°C° 0.3 mm 1 mps 760 mmHg 89%
20:00 +20°C° 0.3 mm 1 mps 760 mmHg 93%
21:00 +17°C° 0.3 mm 0 mps 760 mmHg 96%
22:00 +17°C° 0.6 mm 0 mps 760 mmHg 97%
23:00 +17°C° 0.6 mm 0 mps 761 mmHg 97%

Tomorrow, 12 August, Wednesday

Time Temperature Precipitation Wind Pressure Humidity
00:00 +17°C° 0.6 mm 0 mps 761 mmHg 97%
01:00 +17°C° 1.5 mm 0 mps 761 mmHg 97%
02:00 +17°C° 1.5 mm 0 mps 760 mmHg 97%
03:00 +17°C° 1.5 mm 0 mps 760 mmHg 98%
04:00 +17°C° 0.7 mm 0 mps 760 mmHg 98%
05:00 +17°C° 0.7 mm 0 mps 760 mmHg 98%
06:00 +17°C° 0.7 mm 0 mps 760 mmHg 98%
07:00 +20°C° 0.7 mm 1 mps 760 mmHg 96%
08:00 +20°C° 0.7 mm 1 mps 760 mmHg 95%
09:00 +21°C° 0.7 mm 1 mps 760 mmHg 93%
10:00 +21°C° 0.1 mm 1 mps 760 mmHg 93%
11:00 +21°C° 0.1 mm 1 mps 760 mmHg 92%
12:00 +21°C° 0.1 mm 1 mps 760 mmHg 92%
13:00 +22°C° 0 mm 1 mps 760 mmHg 90%
14:00 +22°C° 0 mm 1 mps 760 mmHg 88%
15:00 +22°C° 0 mm 1 mps 760 mmHg 86%
16:00 +22°C° 0 mm 1 mps 760 mmHg 87%
17:00 +22°C° 0 mm 1 mps 760 mmHg 88%
18:00 +22°C° 0 mm 1 mps 760 mmHg 89%
19:00 +21°C° 0 mm 1 mps 760 mmHg 92%
20:00 +20°C° 0 mm 1 mps 760 mmHg 95%
21:00 +19°C° 0 mm 1 mps 761 mmHg 98%
22:00 +19°C° 0 mm 1 mps 761 mmHg 98%
23:00 +19°C° 0 mm 1 mps 761 mmHg 98%

Day after tomorrow, 13 August, Thursday

Time Temperature Precipitation Wind Pressure Humidity
00:00 +17°C° 0 mm 0 mps 761 mmHg 97%
01:00 +18°C° 0 mm 1 mps 761 mmHg 97%
02:00 +18°C° 0 mm 1 mps 760 mmHg 97%
03:00 +18°C° 0 mm 1 mps 760 mmHg 97%
04:00 +18°C° 0 mm 1 mps 760 mmHg 97%
05:00 +18°C° 0 mm 1 mps 761 mmHg 96%
06:00 +18°C° 0 mm 1 mps 761 mmHg 96%
07:00 +19°C° 0 mm 1 mps 761 mmHg 93%
08:00 +19°C° 0 mm 1 mps 761 mmHg 90%
09:00 +20°C° 0 mm 1 mps 761 mmHg 87%
10:00 +20°C° 0 mm 1 mps 761 mmHg 86%
11:00 +20°C° 0 mm 2 mps 761 mmHg 84%
12:00 +20°C° 0 mm 2 mps 761 mmHg 82%
13:00 +20°C° 0 mm 2 mps 761 mmHg 81%
14:00 +20°C° 0 mm 2 mps 761 mmHg 80%
15:00 +20°C° 0 mm 2 mps 761 mmHg 79%
16:00 +20°C° 0 mm 2 mps 761 mmHg 82%
17:00 +19°C° 0 mm 2 mps 761 mmHg 84%
18:00 +19°C° 0 mm 2 mps 761 mmHg 87%
19:00 +18°C° 0 mm 2 mps 761 mmHg 89%
20:00 +17°C° 0 mm 2 mps 761 mmHg 92%
21:00 +16°C° 0 mm 2 mps 762 mmHg 95%
22:00 +16°C° 0 mm 2 mps 762 mmHg 95%
23:00 +16°C° 0 mm 2 mps 762 mmHg 95%

14 August, Friday

Time Temperature Precipitation Wind Pressure Humidity
00:00 +16°C° 0 mm 2 mps 762 mmHg 95%
01:00 +16°C° 0 mm 1 mps 761 mmHg 95%
02:00 +15°C° 0 mm 1 mps 761 mmHg 95%
03:00 +15°C° 0 mm 1 mps 761 mmHg 95%
04:00 +15°C° 0 mm 1 mps 761 mmHg 95%
05:00 +15°C° 0 mm 1 mps 761 mmHg 94%
06:00 +15°C° 0 mm 2 mps 761 mmHg 94%
07:00 +16°C° 0 mm 2 mps 761 mmHg 91%
08:00 +18°C° 0 mm 1 mps 761 mmHg 89%
09:00 +18°C° 0 mm 1 mps 762 mmHg 86%
10:00 +18°C° 0 mm 2 mps 761 mmHg 84%
11:00 +18°C° 0 mm 2 mps 761 mmHg 83%
12:00 +19°C° 0 mm 2 mps 761 mmHg 81%
13:00 +19°C° 0 mm 2 mps 761 mmHg 81%
14:00 +19°C° 0 mm 2 mps 761 mmHg 81%
15:00 +20°C° 0 mm 2 mps 761 mmHg 81%
16:00 +19°C° 0 mm 2 mps 761 mmHg 83%
17:00 +19°C° 0 mm 2 mps 761 mmHg 85%
18:00 +19°C° 0 mm 2 mps 761 mmHg 87%
19:00 +19°C° 0 mm 1 mps 762 mmHg 90%
20:00 +18°C° 0 mm 1 mps 762 mmHg 93%
21:00 +16°C° 0 mm 1 mps 762 mmHg 97%
22:00 +16°C° 0 mm 1 mps 762 mmHg 97%
23:00 +16°C° 0 mm 1 mps 762 mmHg 96%

15 August, Saturday

Time Temperature Precipitation Wind Pressure Humidity
00:00 +15°C° 0 mm 0 mps 762 mmHg 96%
01:00 +15°C° 0 mm 0 mps 762 mmHg 96%
02:00 +15°C° 0 mm 0 mps 762 mmHg 96%
03:00 +15°C° 0 mm 0 mps 762 mmHg 96%
04:00 +15°C° 0 mm 0 mps 762 mmHg 96%
05:00 +16°C° 0 mm 0 mps 762 mmHg 95%
06:00 +16°C° 0 mm 0 mps 762 mmHg 94%
07:00 +17°C° 0 mm 0 mps 762 mmHg 91%
08:00 +17°C° 0 mm 0 mps 762 mmHg 88%
09:00 +18°C° 0 mm 0 mps 762 mmHg 85%
10:00 +21°C° 0 mm 1 mps 762 mmHg 81%
11:00 +23°C° 0 mm 1 mps 762 mmHg 77%
12:00 +24°C° 0 mm 1 mps 762 mmHg 73%
13:00 +24°C° 0 mm 2 mps 762 mmHg 72%
14:00 +24°C° 0 mm 2 mps 762 mmHg 72%
15:00 +24°C° 0 mm 2 mps 761 mmHg 71%
16:00 +22°C° 0 mm 3 mps 761 mmHg 76%
17:00 +21°C° 0 mm 3 mps 761 mmHg 81%
18:00 +20°C° 0 mm 3 mps 761 mmHg 86%
19:00 +19°C° 0 mm 2 mps 761 mmHg 90%
20:00 +17°C° 0 mm 2 mps 761 mmHg 94%
21:00 +16°C° 0 mm 1 mps 762 mmHg 98%
22:00 +16°C° 0 mm 1 mps 762 mmHg 97%
23:00 +16°C° 0 mm 1 mps 761 mmHg 97%

16 August, Sunday

Time Temperature Precipitation Wind Pressure Humidity
00:00 +16°C° 0 mm 1 mps 761 mmHg 97%
01:00 +16°C° 0 mm 1 mps 761 mmHg 97%
02:00 +16°C° 0 mm 1 mps 761 mmHg 97%
03:00 +16°C° 0 mm 1 mps 761 mmHg 97%
04:00 +16°C° 0 mm 1 mps 761 mmHg 96%
05:00 +16°C° 0 mm 1 mps 761 mmHg 95%
06:00 +16°C° 0 mm 1 mps 761 mmHg 94%
07:00 +16°C° 0.1 mm 1 mps 761 mmHg 93%
08:00 +17°C° 0.1 mm 2 mps 761 mmHg 91%
09:00 +17°C° 0.1 mm 2 mps 761 mmHg 89%
10:00 +17°C° 0.1 mm 2 mps 761 mmHg 88%
11:00 +18°C° 0.1 mm 2 mps 760 mmHg 87%
12:00 +18°C° 0.1 mm 3 mps 760 mmHg 86%
13:00 +19°C° 0 mm 3 mps 760 mmHg 83%
14:00 +19°C° 0 mm 3 mps 759 mmHg 80%
15:00 +19°C° 0 mm 3 mps 759 mmHg 78%
16:00 +18°C° 0 mm 3 mps 759 mmHg 80%
17:00 +18°C° 0 mm 3 mps 759 mmHg 82%
18:00 +17°C° 0 mm 3 mps 759 mmHg 84%
19:00 +16°C° 0 mm 3 mps 759 mmHg 88%
20:00 +16°C° 0 mm 3 mps 759 mmHg 91%
21:00 +14°C° 0 mm 3 mps 759 mmHg 95%
22:00 +14°C° 0 mm 3 mps 759 mmHg 96%
23:00 +14°C° 0 mm 3 mps 758 mmHg 96%
Show more